Location: Gugi
(45.4667°N, 11.1000°E)
Time: 14:34:47
(UTC+00:00)

Cosmos 397 - Pass Details

Date: 17 November 2019
Orbit: 575 x 2154 km, 65.7° (Epoch: 04 December)

Event Time Altitude Azimuth Distance (km) Brightness Sun altitude
Rises 16:59:23 0° 328° (NNW) 2,904 8.3 -13.2°
Reaches altitude 10° 17:01:43 10° 332° (NNW) 1,927 7.3 -13.6°
Maximum altitude 17:05:47 57° 52° (NE) 686 4.5 -14.3°
Drops below altitude 10° 17:09:57 10° 132° (SE) 1,970 6.8 -15.0°
Enters shadow 17:10:09 - 133° (SE) 2,054 6.9 -15.1°
